This demonstration page uses our WeatherBlox Daily Observations layout. Learn more.

Left ArrowRight Arrow

34.02893, -84.19858

Hourly Observations for July 28, 2021

Temp ( °F °C ) Dew Point ( °F °C ) Humidity (%) Winds ( mph kmh ) Pressure ( in mb ) Visibility ( mi km ) Precip ( " mm )
12:53 am 00:53 Clear 73 22.8 72 22.2 96 96 Calm 29.98 1015 9 14 0.00 0.00
1:53 am 01:53 Clear 73 22.8 72 22.2 96 96 SSE 3 6 29.98 1015 10 16 0.00 0.00
2:53 am 02:53 Mostly Clear 73 22.8 72 22.2 96 96 Calm 29.98 1015 8 13 0.00 0.00
3:53 am 03:53 Partly Cloudy 73 22.8 72 22.2 96 96 W 6 9 29.96 1015 10 16 0.00 0.00
4:53 am 04:53 Clear with Mist and Fog 72 22.2 71 21.7 97 97 Calm 29.97 1015 5 8 0.00 0.00
5:22 am 05:22 Mostly Clear with Mist and Fog 72 22.2 71 21.7 97 97 Calm 30.00 1016 5 8 0.00 0.00
5:53 am 05:53 Clear with Mist and Fog 72 22.2 71 21.7 97 97 Calm 29.99 1016 5 8 0.00 0.00
6:46 am 06:46 Partly Cloudy with Mist and Fog 71 21.7 71 21.7 100 100 SSW 3 6 30.01 1016 3 4 0.00 0.00
6:53 am 06:53 Mostly Cloudy with Mist and Fog 72 22.2 71 21.7 97 97 WSW 3 6 30.00 1016 3 4 0.00 0.00
6:59 am 06:59 Partly Cloudy with Mist and Fog 72 22.2 71 21.7 97 97 Calm 30.02 1016 5 8 0.00 0.00
7:35 am 07:35 Mostly Cloudy with Mist and Fog 72 22.2 72 22.2 100 100 SW 3 6 30.02 1016 0 0 0.00 0.00
7:42 am 07:42 Mostly Cloudy with Mist and Fog 73 22.8 72 22.2 96 96 W 3 6 30.01 1016 0 0 0.00 0.00
7:53 am 07:53 Cloudy with Mist and Fog 73 22.8 72 22.2 96 96 WNW 3 6 30.01 1016 0 0 0.00 0.00
8:31 am 08:31 Cloudy with Mist and Fog 73 22.8 73 22.8 100 100 WNW 6 9 30.01 1016 1 1 0.00 0.00
8:41 am 08:41 Cloudy with Mist and Fog 74 23.3 73 22.8 97 97 NNW 7 11 30.01 1016 2 3 0.00 0.00
8:53 am 08:53 Cloudy with Mist and Fog 74 23.3 73 22.8 97 97 NW 7 11 30.01 1016 2 3 0.00 0.00
9:38 am 09:38 Cloudy 76 24.4 74 23.3 94 94 WNW 6 9 30.03 1017 7 11 0.00 0.00
9:53 am 09:53 Mostly Cloudy 78 25.6 73 22.8 85 85 NW 3 6 30.01 1016 8 13 0.00 0.00
10:08 am 10:08 Mostly Sunny 80 26.7 74 23.3 82 82 VRB 5 7 30.01 1016 8 13 0.00 0.00
10:53 am 10:53 Sunny 83 28.3 74 23.3 74 74 NNW 6 9 30.00 1016 10 16 0.00 0.00
11:53 am 11:53 Sunny 86 30 74 23.3 67 67 Calm 29.99 1016 10 16 0.00 0.00
12:53 pm 12:53 Sunny 89 31.7 74 23.3 61 61 VRB 6 9 29.99 1016 10 16 0.00 0.00
1:53 pm 13:53 Mostly Sunny 92 33.3 73 22.8 54 54 NNE 3 6 29.96 1015 10 16 0.00 0.00
2:53 pm 14:53 Partly Cloudy 91 32.8 71 21.7 52 52 SSE 3 6 29.96 1015 10 16 0.00 0.00
3:53 pm 15:53 Mostly Cloudy 93 33.9 72 22.2 50 50 VRB 3 6 29.94 1014 10 16 0.00 0.00
4:53 pm 16:53 Mostly Cloudy 88 31.1 74 23.3 63 63 NNW 10 17 29.95 1014 10 16 0.00 0.00
5:53 pm 17:53 Sunny 92 33.3 73 22.8 54 54 NNW 7 11 29.93 1014 10 16 0.00 0.00
6:53 pm 18:53 Sunny 91 32.8 73 22.8 56 56 NW 9 15 29.93 1014 10 16 0.00 0.00
7:53 pm 19:53 Sunny 88 31.1 74 23.3 63 63 NNW 9 15 29.93 1014 10 16 0.00 0.00
8:53 pm 20:53 Clear 84 28.9 73 22.8 70 70 N 7 11 29.95 1014 10 16 0.00 0.00
9:53 pm 21:53 Mostly Clear 81 27.2 73 22.8 77 77 S 3 6 29.98 1015 10 16 0.00 0.00
10:53 pm 22:53 Clear 79 26.1 75 23.9 88 88 Calm 29.99 1016 9 14 0.00 0.00
11:53 pm 23:53 Clear 78 25.6 74 23.3 87 87 Calm 29.99 1016 10 16 0.00 0.00

Powered by AerisWeather